[[{"header":{"parameterUnit":"m.s-1","parameterCategory":1,"la1":30.2991,"la2":30.254,"lo1":-89.0895,"lo2":-89.0444,"dy":0.0017,"dx":0.0017,"nx":28,"ny":28,"refTime":"2024-12-22T03:00:00:Z","depth":0,"parameterNumber":2,"parameterNumberName":"U-component_of_WINDS"},"data":[0,0,0,0,0,0,0,0,0,0,0,0,0,0,0,0,0,0,0,0,0,0,0,0,0,0,0,0,0,0,0,0,0,0,0,0,0,0,0,0,0,0,0,0,0,0,0,0,0,0,0,0,0,0,0,0,0,0,-2.721,-2.7211,0,-2.7267,-2.7268,-2.7268,-2.715,-2.7146,-2.7142,-2.7139,-2.7199,-2.7204,-2.7209,0,0,0,0,0,0,0,0,0,0,0,0,0,-2.7,-2.7004,-2.721,-2.7211,-2.7212,-2.7267,-2.7268,-2.7269,-2.7151,-2.7146,-2.7141,-2.7137,-2.7197,-2.7203,-2.7209,0,0,0,0,0,0,0,0,0,0,0,0,0,-2.7077,-2.7006,-2.721,-2.7159,-2.7155,-2.7267,-2.7268,-2.7269,-2.7152,-2.7146,-2.714,-2.7135,-2.7195,-2.7203,-2.721,-2.7374,0,0,-2.7234,-2.7238,0,0,0,0,0,0,0,0,-2.7073,-2.7085,-2.7166,-2.7163,-2.7159,-2.7195,-2.7215,-2.7304,-2.7153,-2.7153,-2.7139,-2.7132,-2.7203,-2.7209,-2.7233,-2.7377,-2.738,-2.7235,-2.724,-2.7243,-2.7245,0,0,0,0,0,0,0,-2.7068,-2.7082,-2.7233,-2.7167,-2.7163,-2.7134,-2.7139,-2.7232,-2.721,-2.7153,-2.7144,-2.7153,-2.7199,-2.7226,-2.7233,-2.7381,-2.7235,-2.7242,-2.7246,-2.7249,-2.7662,-2.7668,0,0,0,0,0,0,-2.7069,-2.7078,-2.7231,-2.7234,-2.7101,-2.7142,-2.7148,-2.719,-2.7208,-2.7206,-2.7157,-2.7147,-2.7215,-2.7224,-2.7235,-2.7429,-2.7243,-2.725,-2.7255,-2.7656,-2.7663,-2.767,0,0,0,0,0,0,-2.7065,-2.7083,-2.7229,-2.7154,-2.717,-2.7152,-2.72,-2.7194,-2.722,-2.7212,-2.7207,-2.7188,-2.7211,-2.7224,-2.734,-2.7429,-2.7254,-2.7261,-2.7648,-2.7658,-2.7667,-2.7818,0,0,0,0,0,0,-2.7059,-2.7083,-2.7145,-2.7156,-2.7175,-2.7334,-2.7206,-2.7199,-2.7233,-2.722,-2.724,-2.7237,-2.7207,-2.7329,-2.7348,-2.7437,-2.7267,-2.764,-2.7653,-2.7664,-2.7805,-2.7831,-2.7854,0,0,0,0,0,-2.7052,-2.7186,-2.7149,-2.7168,-2.7252,-2.7339,-2.7349,-2.7312,-2.7241,-2.7304,-2.7298,-2.7237,-2.7416,-2.7342,-2.7362,-2.7455,-2.7635,-2.7649,-2.7663,-2.7794,-2.7826,-2.7853,0,0,0,0,0,0,-2.7186,-2.7186,-2.7145,-2.7287,-2.7314,-2.7319,-2.7397,-2.7347,-2.7395,-2.7381,-2.7332,-2.7338,-2.7464,-2.747,-2.7388,-2.7614,-2.7513,-2.7532,-2.7606,-2.7636,-2.766,-2.7657,-2.7273,0,0,0,0,0,-2.7232,-2.7302,-2.7298,-2.7423,-2.7439,-2.7416,-2.7452,-2.742,-2.7447,-2.7458,-2.7461,-2.7489,-2.7551,-2.7594,-2.765,-2.7804,-2.7807,-2.7877,-2.7901,-2.7922,-2.7939,-2.8021,-2.8053,-2.7716,-2.7716,-2.7716,0,0,-2.7328,-2.7336,-2.7384,-2.745,-2.7468,-2.7542,-2.7426,-2.7509,-2.7564,-2.747,-2.7581,-2.7584,-2.7612,-2.7748,-2.7807,-2.7757,-2.8032,-2.794,-2.7956,-2.7963,-2.8039,-2.8071,-2.8099,-2.7726,-2.7724,-2.7723,0,0,-2.7541,-2.7554,-2.766,-2.7679,-2.7706,-2.7689,-2.7715,-2.7727,-2.7726,-2.7835,-2.7766,-2.783,-2.7939,-2.7961,-2.7987,-2.8207,-2.8153,-2.8227,-2.8356,-2.8436,-2.8463,-2.8486,-2.8565,-2.8594,-2.8244,-2.8244,-2.8244,0,-2.7657,-2.7766,-2.772,-2.7809,-2.784,-2.7757,-2.7864,-2.7885,-2.793,-2.7953,-2.7895,-2.8029,-2.8042,-2.8183,-2.8236,-2.8259,-2.8287,-2.8226,-2.8462,-2.8485,-2.8506,-2.8582,-2.8612,-2.8253,-2.8252,-2.8251,-2.825,0,-2.7908,-2.7984,-2.8066,-2.8111,-2.8151,-2.8248,-2.8218,-2.8264,-2.8228,-2.8218,-2.833,-2.8342,-2.84,-2.843,-2.8397,-2.8566,-2.8534,-2.847,-2.8368,-2.8548,-2.8618,-2.8646,-2.8266,-2.8263,-2.826,-2.8258,0,0,-2.821,-2.8226,-2.8258,-2.8277,-2.83,-2.8358,-2.8451,-2.8507,-2.8548,-2.8581,-2.8658,-2.8751,-2.8691,-2.8721,-2.8688,-2.8759,-2.8933,-2.8686,-2.8685,-2.8733,-2.9121,-2.9171,-2.9205,-2.8896,-2.8901,-2.8905,-2.9119,0,-2.8422,-2.8582,-2.8543,-2.8702,-2.8772,-2.8693,-2.8774,-2.8797,-2.8789,-2.8847,-2.8838,-2.8905,-2.8821,-2.8838,-2.8904,-2.8898,-2.9011,-2.8882,-2.8968,-2.8972,-2.8966,-2.9241,-2.9294,-2.9496,-2.9146,-2.9151,-2.9154,0,-2.8692,-2.8734,-2.89,-2.8911,-2.8939,-2.9013,-2.906,-2.9117,-2.9141,-2.913,-2.9162,-2.9115,-2.9207,-2.9102,-2.9228,-2.9142,-2.9174,-2.9176,-2.9183,-2.9192,-2.9076,-2.926,-2.9559,-2.9591,-2.9197,-2.9193,-2.919,0,-2.8897,-2.8996,-2.9108,-2.9126,-2.9142,-2.9195,-2.9204,-2.9222,-2.9258,-2.9299,-2.9322,-2.9374,-2.9403,-2.9444,-2.9413,-2.9339,-2.9544,-2.9437,-2.9539,-2.954,-2.9588,-2.9586,-2.99,-2.9606,-2.9605,-2.9605,-2.9604,0,-2.914,-2.9245,-2.9201,-2.927,-2.9385,-2.9339,-2.9454,-2.9453,-2.947,-2.9537,-2.9471,-2.9536,-2.9489,-2.955,-2.9526,-2.9634,-2.9648,-2.9642,-2.9635,-2.9649,-2.9651,-2.9672,-2.9658,-2.9613,-2.9611,-2.9609,-2.9608,0,-2.9391,-2.9365,-2.9482,-2.9486,-2.9489,-2.9574,-2.9577,-2.9642,-2.9627,-2.9714,-2.9732,-2.971,-2.9779,-2.975,-2.9822,-2.9806,-2.9945,-2.9919,-2.9938,-2.9932,-3.0036,-3.0028,-3.0377,-3.0421,-3.0097,-3.01,-3.0102,0,-2.9549,-2.9627,-2.9639,-2.968,-2.9693,-2.9759,-2.9795,-2.9751,-2.9792,-2.9824,-2.9885,-2.9946,-2.9994,-3.0107,-3.0098,-3.0152,-3.0128,-3.0246,-3.0136,-3.0148,-3.0131,-3.0128,-3.0136,-3.0269,-3.0273,-3.0276,-3.0278,0,-2.9832,-2.9815,-2.9869,-2.9919,-2.9964,-3.0001,-3.0033,-3.007,-3.0027,-3.0076,-3.0145,-3.0182,-3.0254,-3.0317,-3.0365,-3.0374,-3.0321,-3.0313,-3.034,-3.0357,-3.0365,-3.0364,-3.0001,-3.0306,-3.0303,-3.0301,-3.03,-3.0298,-3.0042,-3.0108,-3.0127,-3.019,-3.0208,-3.0239,-3.03,-3.0293,-3.0349,-3.0405,-3.0375,-3.0456,-3.0476,-3.0535,-3.0551,-3.0613,-3.0566,-3.0605,-3.0615,-3.0626,-3.064,-3.0353,-3.0621,-3.062,-3.0619,-3.0619,-3.0618,0,-3.0323,-3.0331,-3.0389,-3.0435,-3.0484,-3.0427,-3.0458,-3.0504,-3.0575,-3.0598,-3.0646,-3.0725,-3.0785,-3.078,-3.0835,-3.0886,-3.0862,-3.0902,-3.0899,-3.0902,-3.0678,-3.065,-3.092,-3.092,-3.092,-3.092,-3.0919,-3.0919,-3.0475,-3.0585,-3.057,-3.0688,-3.0694,-3.0772,-3.0795,-3.0823,-3.0842,-3.0932,-3.0982,-3.0977,-3.099,-3.1045,-3.1097,-3.1094,-3.1118,-3.1168,-3.1156,-3.0947,-3.0918,-3.0889,-3.0863,-3.1173,-3.1173,-3.1374,-3.1376,-3.1378]},{"header":{"parameterUnit":"m.s-1","parameterCategory":1,"la1":30.2991,"la2":30.254,"lo1":-89.0895,"lo2":-89.0444,"dy":0.0017,"dx":0.0017,"nx":28,"ny":28,"refTime":"2024-12-22T03:00:00:Z","depth":0,"parameterNumber":3,"parameterNumberName":"V-component_of_WINDS"},"data":[0,0,0,0,0,0,0,0,0,0,0,0,0,0,0,0,0,0,0,0,0,0,0,0,0,0,0,0,0,0,0,0,0,0,0,0,0,0,0,0,0,0,0,0,0,0,0,0,0,0,0,0,0,0,0,0,0,0,-5.1222,-5.1224,0,-5.132,-5.1321,-5.1322,-5.1243,-5.124,-5.1236,-5.1233,-5.1329,-5.1334,-5.134,0,0,0,0,0,0,0,0,0,0,0,0,0,-5.0963,-5.0968,-5.1222,-5.1224,-5.1225,-5.132,-5.1321,-5.1322,-5.1244,-5.124,-5.1236,-5.1232,-5.1327,-5.1334,-5.134,0,0,0,0,0,0,0,0,0,0,0,0,0,-5.1069,-5.097,-5.1222,-5.1197,-5.1196,-5.1319,-5.1321,-5.1323,-5.1245,-5.1239,-5.1234,-5.123,-5.1325,-5.1333,-5.1341,-5.1494,0,0,-5.1367,-5.1371,0,0,0,0,0,0,0,0,-5.1063,-5.1079,-5.12,-5.1199,-5.1198,-5.1264,-5.1264,-5.138,-5.1246,-5.1226,-5.1233,-5.1227,-5.1311,-5.132,-5.135,-5.1498,-5.1502,-5.1368,-5.1373,-5.1377,-5.1379,0,0,0,0,0,0,0,-5.1056,-5.1074,-5.1261,-5.1201,-5.12,-5.1179,-5.1189,-5.1286,-5.1295,-5.1227,-5.1222,-5.1235,-5.131,-5.1342,-5.1351,-5.1504,-5.1368,-5.1375,-5.1381,-5.1384,-5.1779,-5.1785,0,0,0,0,0,0,-5.1052,-5.1069,-5.1258,-5.1264,-5.1117,-5.1188,-5.1199,-5.1248,-5.1294,-5.1296,-5.1239,-5.1231,-5.133,-5.1341,-5.1354,-5.1534,-5.1377,-5.1385,-5.139,-5.1774,-5.1781,-5.1787,0,0,0,0,0,0,-5.1047,-5.107,-5.1254,-5.1165,-5.1187,-5.1198,-5.1254,-5.1252,-5.1284,-5.1303,-5.1303,-5.127,-5.1326,-5.1342,-5.1459,-5.1537,-5.1388,-5.1396,-5.1768,-5.1776,-5.1784,-5.1897,0,0,0,0,0,0,-5.104,-5.1068,-5.1128,-5.1167,-5.1192,-5.1359,-5.1258,-5.1258,-5.13,-5.129,-5.1332,-5.1334,-5.1323,-5.1447,-5.1468,-5.1546,-5.1403,-5.1761,-5.1771,-5.1781,-5.1886,-5.1908,-5.1926,0,0,0,0,0,-5.1031,-5.1155,-5.1131,-5.1154,-5.1266,-5.1364,-5.1378,-5.1364,-5.1306,-5.1365,-5.1376,-5.1333,-5.1525,-5.146,-5.1482,-5.1564,-5.1756,-5.1768,-5.178,-5.1877,-5.1904,-5.1926,0,0,0,0,0,0,-5.1123,-5.116,-5.1133,-5.1275,-5.1317,-5.1351,-5.1424,-5.1393,-5.1451,-5.1439,-5.1418,-5.1428,-5.1551,-5.1569,-5.1496,-5.1712,-5.1631,-5.1648,-5.1697,-5.1722,-5.1742,-5.1735,-5.141,0,0,0,0,0,-5.1161,-5.1238,-5.1265,-5.1387,-5.141,-5.1414,-5.1456,-5.1441,-5.1483,-5.1501,-5.152,-5.1562,-5.1631,-5.1677,-5.1742,-5.1888,-5.1895,-5.1955,-5.1975,-5.1991,-5.2007,-5.2083,-5.211,-5.1827,-5.1827,-5.1826,0,0,-5.1238,-5.1267,-5.1317,-5.1406,-5.1437,-5.1517,-5.1429,-5.1517,-5.1575,-5.1513,-5.1625,-5.1641,-5.1686,-5.1818,-5.1877,-5.1836,-5.2086,-5.2007,-5.202,-5.2026,-5.2099,-5.2125,-5.2149,-5.1835,-5.1833,-5.1832,0,0,-5.1419,-5.1449,-5.1554,-5.1587,-5.1635,-5.1637,-5.1662,-5.17,-5.1709,-5.1821,-5.1776,-5.1844,-5.1964,-5.1997,-5.203,-5.2222,-5.2184,-5.2244,-5.2348,-5.2423,-5.2446,-5.2465,-5.2533,-5.2558,-5.2259,-5.2259,-5.2259,0,-5.1508,-5.1628,-5.1611,-5.1702,-5.1742,-5.1691,-5.1795,-5.1827,-5.1894,-5.1922,-5.1875,-5.2025,-5.2051,-5.2189,-5.2236,-5.2265,-5.2291,-5.2239,-5.2444,-5.2464,-5.2482,-5.2546,-5.2572,-5.2266,-5.2265,-5.2264,-5.2264,0,-5.1734,-5.1818,-5.1896,-5.1963,-5.2011,-5.2108,-5.2105,-5.2155,-5.2136,-5.2142,-5.2256,-5.2286,-5.2355,-5.2387,-5.2369,-5.2522,-5.2495,-5.2447,-5.2365,-5.2516,-5.2576,-5.26,-5.2276,-5.2273,-5.2271,-5.227,0,0,-5.1978,-5.2034,-5.2063,-5.2092,-5.2141,-5.2204,-5.2298,-5.2367,-5.241,-5.2457,-5.2534,-5.2637,-5.2592,-5.2629,-5.2614,-5.268,-5.2829,-5.2624,-5.2624,-5.266,-5.2998,-5.3034,-5.3063,-5.2804,-5.2808,-5.2812,-5.2994,0,-5.216,-5.2326,-5.2313,-5.2469,-5.2544,-5.2496,-5.2577,-5.2615,-5.2623,-5.2686,-5.2693,-5.2766,-5.2703,-5.2724,-5.2788,-5.2798,-5.2897,-5.2784,-5.2874,-5.2877,-5.2864,-5.3095,-5.3133,-5.3304,-5.3018,-5.3022,-5.3025,0,-5.2396,-5.2453,-5.2616,-5.2653,-5.2684,-5.2758,-5.2819,-5.2881,-5.2922,-5.2923,-5.2964,-5.2937,-5.303,-5.2945,-5.3071,-5.2995,-5.303,-5.3041,-5.3047,-5.3055,-5.296,-5.3108,-5.3358,-5.3384,-5.3061,-5.3059,-5.3056,0,-5.2557,-5.2673,-5.2786,-5.2812,-5.2858,-5.291,-5.2931,-5.2968,-5.3009,-5.3062,-5.3089,-5.3152,-5.3186,-5.3234,-5.3224,-5.3164,-5.3353,-5.3267,-5.3354,-5.3355,-5.3396,-5.3394,-5.3656,-5.342,-5.342,-5.3419,-5.3419,0,-5.2762,-5.2864,-5.2858,-5.2928,-5.3039,-5.3022,-5.3133,-5.3147,-5.318,-5.3249,-5.321,-5.3276,-5.3259,-5.3324,-5.3316,-5.3421,-5.3437,-5.3439,-5.3436,-5.3443,-5.3442,-5.3465,-5.3453,-5.3426,-5.3425,-5.3423,-5.3422,0,-5.296,-5.2961,-5.308,-5.3114,-5.3124,-5.3205,-5.3232,-5.3296,-5.33,-5.3389,-5.3408,-5.3414,-5.3488,-5.3483,-5.3566,-5.3561,-5.369,-5.3673,-5.3677,-5.3673,-5.376,-5.3752,-5.4046,-5.4083,-5.3824,-5.3827,-5.3829,0,-5.3092,-5.3169,-5.321,-5.3255,-5.328,-5.3352,-5.3394,-5.338,-5.3425,-5.3477,-5.3535,-5.3605,-5.3661,-5.3781,-5.3792,-5.3854,-5.3838,-5.3937,-5.3847,-5.3851,-5.3839,-5.3834,-5.3841,-5.3954,-5.3957,-5.396,-5.3961,0,-5.3324,-5.332,-5.3384,-5.3448,-5.35,-5.3549,-5.3594,-5.3632,-5.3622,-5.3675,-5.375,-5.3794,-5.3879,-5.3949,-5.4008,-5.4027,-5.3993,-5.3989,-5.4013,-5.4021,-5.402,-5.4021,-5.3725,-5.3983,-5.3981,-5.3979,-5.3978,-5.3977,-5.3492,-5.3558,-5.3598,-5.3669,-5.3701,-5.3744,-5.3806,-5.3817,-5.3881,-5.395,-5.3937,-5.4021,-5.4058,-5.4135,-5.416,-5.4225,-5.4189,-5.4223,-5.4232,-5.424,-5.425,-5.4009,-5.4235,-5.4235,-5.4234,-5.4234,-5.4233,0,-5.3722,-5.3745,-5.3811,-5.3875,-5.3931,-5.3895,-5.3942,-5.3991,-5.4066,-5.4104,-5.416,-5.4246,-5.4313,-5.4329,-5.4393,-5.4441,-5.4427,-5.4459,-5.4455,-5.4459,-5.4278,-5.4252,-5.4469,-5.4469,-5.4469,-5.4469,-5.4469,-5.4469,-5.3848,-5.3958,-5.3958,-5.4082,-5.4103,-5.4187,-5.4217,-5.4255,-5.4285,-5.4384,-5.444,-5.445,-5.4478,-5.4544,-5.4603,-5.4606,-5.4631,-5.4669,-5.4665,-5.4496,-5.4472,-5.445,-5.4425,-5.4675,-5.4675,-5.4841,-5.4842,-5.4844]}]]